Погода в Алексеевке

Погода в Алексеевке : погода сейчас, прогноз погоды и архив. Всё, что Вы хотите узнать о погоде в Алексеевке!

Поиск расширенной информации на нашем сайте:

Другие новости

Новости СМИ2

Главная страница сайта

Новости сайта

03.07.2017

Напоминаем, что на нашем специализированном сайте Метеоцентр.Азия вы можете получить высокодетализированные автоматические прогнозы погоды по пунктам России, СНГ и мира в авиационном формате (включающие направление и скорость ветра, видимость, явления погоды, количество и форму облачности, нижнюю и верхнюю границу облачности).


Погода в Алексеевке - сегодня

Время (UTC), дата Ветер
(°,м/с) 
Видим.   Явления Облачность Т
(°С)
Тd
(°С)
f(%) Тe
(°С)
Pmin
(гПа)
dP
(гПа)
Po
(мм)
O2
(г/м3)
Тmin Tmax R s Состояние
почвы
21 19.04.18 160 (Ю) н/о    ясно 
-3.3 -6.4 79 -4  1019.4  -1.3  729  298           
00 20.04.18 170 (Ю) 20000 м    10/4 600 м средняя 
[Sc|Ac lent]
+0.1 -2.4 83 -2  1016.6  -2.1  727  293           
03 20.04.18 170 (Ю) 20000 м  в посл. час дождь  10/4 600 м средняя 
[Sc|Ac lent]
+2.3 -1 79 1014.7  -1.4  726  290      0.0  <0.5  мокрый или
старый снег
10-40% 
09 20.04.18 210 (ЮЗ) 20000 м  {ливн. осадки}  10/0 средняя, верхняя 
[Ac lent|Ci sp]
+9.5 +4.9 73 +8  1014  0.3  726  282           
21 20.04.18 170 (Ю) н/о    6/0 средняя 
[Ac As]
+6.9 +0.1 62 +6  1010.6  -1.5  724  284           
00 21.04.18 180 (Ю) 20000 м    10/0 средняя, верхняя 
[Ac As|Ci sp]
+5.9 +0.6 69 +5  1010  -0.7  723  285           
06 21.04.18 210 (ЮЗ) 20000 м    10/0 верхняя 
[Ci sp]
+11.7 +2.4 53 +10  1008.6  -0.5  723  279  +5.8         
09 21.04.18 180 (Ю) 20000 м    3/3 1000 м 
[Cu hum]
+15.3 +2.3 41 +15  1005.9  -2.1  721  275           
12 21.04.18 200 (Ю) 20000 м    9/6 600 м верхняя 
[Sc|Ci fib]
+16.1 -1 31 +16  1003.7  -2  720  274           
21 21.04.18 210 (ЮЗ) н/о    6/6 600 м 
[Sc]
+10.6 +2.4 57 +9  1001.9  0.1  718  278           
00 22.04.18 210 (ЮЗ) 20000 м    10/0 средняя 
[Ac und]
+8.3 +3.8 73 +8  1002.7  0.4  718  280           
06 22.04.18 240 (ЮЗ) 20000 м    10/9 600 м средняя 
[Sc|Ac lent]
+11.7 +6.1 68 +12  1005.7  1.5  721  277  +8.2         
09 22.04.18 360 (С) 20000 м    10/8 600 м средняя 
[Sc|Ac lent]
+9.9 +5.4 74 +10  1006.6  0.6  721  279           
12 22.04.18 350 (С) 20000 м    10/9 600 м средняя 
[Sc|Ac lent]
+11.6 +5.2 65 +13  1006.6  0.3  721  278           
15 22.04.18 060 (СВ) 20000 м    8/0 
[Sc]
+9.6 +6.4 80 +10  1007.8  0.8  722  280    +11.8       
18 22.04.18 130 (ЮВ) н/о    9/9 600 м 
[Sc]
+7.1 +5.1 87 +8  1008.1  -0.1  722  283    +11.8       
21 22.04.18 тихо ()   н/о  туман  ?/?  
+6.4 +5.5 94 +6  1007.6  -0.6  721  283           
09 23.04.18 220 (ЮЗ) 20000 м    6/6 1000 м 
[Cu Sc]
+15.9 +3.5 43 +16  1008.8  0.7  723  275           
12 23.04.18 220 (ЮЗ) 20000 м    8/8 600 м 
[Cu Sc]
+15.5 +2.6 42 +15  1009.7  0.8  724  276           
15 23.04.18 200 (Ю) 20000 м    4/4 600 м 
[Sc]
+11.7 +0.6 46 +12  1011.4  725  280    +17.1       
18 23.04.18 140 (ЮВ) н/о    8/8 600 м 
[Sc]
+6.1 +2.8 79 +6  1012.4  0.1  725  285    +17.1       
21 23.04.18 170 (Ю) н/о    10/10 600 м 
[Sc]
+6.3 +4 85 +7  1011.4  -0.9  724  284           
00 24.04.18 180 (Ю) 20000 м    10/4 600 м средняя 
[Sc|Ac As]
+6.9 +4.4 84 +8  1010  -1.2  723  283           
06 24.04.18 210 (ЮЗ) 20000 м    10/3 1000 м средняя 
[Sc|Ac und]
+14.3 +2.6 45 +14  1006.7  -1  722  276  +5.6         
09 24.04.18 200 (Ю) 4000 м  слаб. ливневой дождь  10/10 600 м кучево-дожд. 
[Cb cap]
+10.1 +8.7 91 +10  1006.8  -0.5  721  279           
Время (UTC), дата Ветер
(°,м/с) 
Видим.   Явления Облачность Т
(°С)
Тd
(°С)
f(%) Тe
(°С)
Pmin
(гПа)
dP
(гПа)
Po
(мм)
O2
(г/м3)
Тmin Tmax R s Состояние
почвы

Для получения пояснительной информации подведите курсор к названию столбца.

ПОГОДА в Алексеевке - архив

Всё, что Вы хотите узнать о погоде в Алексеевке - удобно и подробно!

Выберите нужную дату (начиная с 1 января 2015* года) и нажмите кнопку "Найти".
Будут отображены архивные сводки погоды по пункту Алексеевка, начиная с указанной даты.


Отображать данные в формате CSV (для использования в таблицах Excel)


Внимание! Наш архив погоды предназначен исключительно для личного некоммерческого использования в познавательных целях. Если Вам необходимы официальные справки о состоянии погоды (для производственных, юридических, коммерческих и т.п. целей), обращайтесь в органы Росгидромета.

*Примечание: данная дата относится к архиву по метеостанциям СССР (Россия, СНГ, Балтия).
Архив по метеостанциям Зарубежной Европы и Азии (кроме Китая) хранится 10 дней, по другим регионам земного шара (Китай, Африка, Америка, Австралия, Океания) - 1 день.

Алексеевка - район местоположения метеостанции


Название, широта, долгота, высота метеостанции:
Алексеевка 52°ш. 70.9°д. 384 м над ур. моря [Казахстан]

Дополнительная информация

В oтличие oт бoльшинства пoгoдных сайтoв мы публикуем пoдрoбную метеoинфoрмацию в детальнoм прoфессиoнальнoм фoрмате.

Характеристики температуры и влажнoсти вoздуха измеряются на высoте 2 м в тени вдали oт зданий и деревьев.
Скoрoсть ветра измеряется на высoте 10 м (на урoвне рoста челoвека скoрoсть ветра ниже в 1.5-2 раза). Если метеoстанция нахoдится в гoрoде или в лесу, тo скoрoсть ветра занижена на 2-4 м/с пo сравнению с oткрытым местoм. Скoрoсть ветра над акватoриями крупных рек и oзёр, а также на вершинах хoлмoв на 2-5 м/с выше, чем в oбычных услoвиях.
Атмoсфернoе давление в разных тoчках местнoсти мoжет значительнo oтличаться oт давления на метеoстанции, в зависимoсти oт услoвий рельефа (при пoдъёме на 10 м давление пoнижается примернo на 1 мм рт.ст.).